Location: Eaton Estates
(41.3089°N, 82.0057°W)
Time: 07:05:36
(UTC+00:00)

KORONAS-FOTON - Pass Details

Date: 17 June 2021
Orbit: 505 x 530 km, 82.4° (Epoch: 27 July)

Event Time Altitude Azimuth Distance (km) Brightness Sun altitude
Exits shadow 02:21:26 18° 152° (SSE) 1,308 5.2 -12.1°
Maximum altitude 02:23:49 38° 93° (E) 798 4.4 -12.4°
Drops below altitude 10° 02:27:21 10° 24° (NNE) 1,736 6.8 -12.8°
Sets 02:29:34 0° 17° (NNE) 2,623 7.9 -13.1°
